Temp
9 9 8 8 9 9 9 9 9 9 9 9 9 9 9 9 9 9 9 9 9 9 9 9 9 9 9 9 9 9 8 8 8 8 7 7 7 7 6 6 6 6 5 5 5
9 9 9 9 9 9 9 9 9 9 9 9 9 9 9 9 9 9 9 9 9 9 9 9 9 10 9 9 9 9 8 8 7 8 8 8 7 7 7 7 6 6 6 5 5
9 9 9 9 9 9 9 9 9 9 9 9 9 9 9 9 9 9 9 9 9 9 9 9 9 10 9 8 8 8 8 8 8 8 8 8 7 7 7 7 6 6 6 5 4
9 9 9 9 9 9 8 8 9 9 9 9 9 9 9 9 8 9 9 9 9 9 9 9 10 10 8 8 8 8 8 8 8 8 8 8 8 7 7 7 6 6 6 5 4
9 9 9 9 9 9 9 8 8 8 8 8 8 8 9 9 9 9 9 9 9 9 9 9 9 9 8 8 8 8 8 8 8 8 8 8 8 8 8 7 6 6 5 5 4
8 8 9 9 9 9 9 8 8 8 8 8 8 8 9 9 9 9 9 9 9 9 9 9 9 8 8 8 8 8 9 8 8 8 8 8 8 8 8 7 7 6 5 4 4
9 9 9 9 9 9 9 8 8 8 8 8 8 8 8 8 8 9 9 9 9 9 9 9 9 9 8 9 9 9 9 8 8 8 8 8 8 8 8 7 7 6 5 5 5
9 9 9 9 9 9 9 9 8 8 8 8 8 8 8 8 8 8 9 9 9 9 9 9 9 9 9 9 9 9 9 8 8 8 8 8 9 8 8 8 7 6 5 5 6
9 9 9 9 9 9 9 9 8 8 8 8 8 8 8 8 8 8 8 8 9 9 9 9 9 9 9 8 9 8 8 8 8 8 8 8 9 9 9 8 8 6 6 6 6
9 9 9 9 9 9 9 9 8 8 8 8 8 8 8 8 8 8 8 8 9 8 8 9 8 8 8 8 8 8 8 8 8 9 9 8 9 9 9 9 8 7 7 7 7
9 9 9 9 9 9 9 8 8 8 8 8 8 8 8 8 8 8 8 8 8 8 8 9 8 8 8 8 8 8 8 8 9 9 9 9 10 9 10 10 9 8 8 7 7
10 9 9 9 9 9 8 8 8 8 8 8 8 8 8 8 8 8 8 8 8 8 8 9 9 8 8 8 8 8 8 8 8 9 9 9 12 10 11 10 9 9 9 8 8
11 10 9 9 9 9 9 9 8 8 8 8 8 8 7 8 8 8 8 8 8 8 8 8 8 8 8 8 8 8 8 8 7 8 9 9 12 12 11 11 10 10 10 10 10
11 11 10 9 9 9 9 9 9 9 8 8 8 8 8 8 8 8 8 8 8 8 8 8 8 8 8 8 8 8 8 8 7 7 8 8 9 12 11 11 11 11 10 10 10
11 11 10 10 9 9 9 9 9 9 7 8 8 8 8 8 8 8 8 8 8 8 8 8 8 8 8 8 8 8 7 7 7 7 7 8 7 13 12 12 11 11 11 11 10
11 11 11 10 9 9 8 9 8 8 8 9 8 8 8 8 8 8 8 8 8 8 8 8 8 8 8 8 8 8 8 7 6 6 5 7 7 12 12 12 11 11 11 11 11
11 11 11 10 9 9 8 8 8 8 8 9 9 8 8 8 8 8 7 7 7 7 8 8 8 8 8 8 8 7 7 7 6 4 5 7 7 12 11 11 11 11 10 10 10
11 11 10 10 10 9 8 8 8 8 9 9 9 9 8 8 8 8 8 8 8 7 7 7 8 8 8 7 7 7 7 6 7 3 5 7 8 12 11 11 11 11 10 10 10
10 10 10 10 10 9 8 8 9 8 8 8 8 8 8 8 7 8 8 8 8 7 7 7 7 8 8 7 7 7 7 6 6 5 4 8 10 11 11 11 11 10 9 9 9
10 10 9 9 9 9 8 9 8 8 8 8 8 8 8 8 7 7 8 8 8 8 7 7 7 8 7 7 7 7 6 6 6 3 4 7 8 11 10 10 10 10 9 8 8
10 9 9 9 9 8 8 8 8 8 7 7 8 8 7 8 8 8 8 8 8 8 8 7 7 7 7 7 7 6 6 6 6 5 2 1 9 10 10 10 9 9 9 8 8
9 9 9 8 8 9 9 9 8 8 8 7 7 7 7 7 7 7 7 7 7 7 8 7 6 7 7 7 6 6 6 6 6 5 5 4 7 9 9 9 9 8 8 8 8
8 8 8 8 8 9 9 9 8 8 8 7 7 7 7 7 7 7 7 7 7 7 7 7 6 6 7 7 6 6 7 6 6 6 5 4 7 9 9 9 8 8 7 8 8
8 7 8 8 8 8 8 8 7 8 8 7 7 6 6 6 6 6 6 6 7 6 6 6 6 6 7 8 7 6 7 6 6 5 6 6 7 8 9 8 7 7 7 8 8
7 7 8 8 8 8 7 8 8 7 7 7 7 7 6 6 6 6 6 6 6 6 6 6 6 6 6 6 6 7 6 6 6 6 5 7 6 8 8 7 7 8 8 8 8
6 7 7 8 7 8 7 9 8 7 7 7 7 7 6 6 6 6 6 5 5 5 5 5 5 5 5 6 6 6 6 6 5 6 6 6 7 9 7 7 7 7 8 8 8
6 6 6 6 7 6 8 9 8 6 7 7 6 6 6 7 5 5 4 5 5 5 5 5 5 5 4 5 5 5 6 6 7 7 7 6 8 7 7 6 7 7 7 7 7
Height
3185 3185 3185 3186 3186 3186 3186 3187 3188 3189 3190 3191 3192 3192 3193 3194 3194 3194 3194 3195 3194 3193 3193 3192 3192 3192 3191 3190 3190 3190 3192 3192 3192 3192 3192 3191 3190 3188 3188 3187 3187 3186 3184 3184 3183
3184 3184 3185 3186 3186 3187 3187 3188 3189 3189 3190 3191 3192 3193 3193 3194 3195 3195 3195 3194 3194 3193 3193 3193 3193 3192 3191 3191 3191 3190 3191 3191 3191 3192 3191 3190 3189 3188 3189 3187 3186 3184 3183 3183 3182
3185 3184 3184 3185 3186 3186 3187 3188 3189 3190 3191 3192 3193 3193 3193 3194 3195 3195 3195 3194 3194 3194 3193 3193 3193 3192 3191 3191 3191 3190 3190 3190 3190 3190 3189 3189 3187 3187 3187 3187 3185 3184 3182 3181 3180
3185 3185 3185 3185 3185 3185 3186 3187 3188 3189 3190 3191 3192 3193 3194 3195 3197 3195 3194 3194 3194 3193 3194 3193 3193 3192 3191 3191 3191 3190 3189 3189 3188 3188 3188 3187 3186 3185 3185 3185 3183 3182 3181 3180 3178
3185 3185 3185 3185 3185 3186 3186 3187 3188 3189 3189 3190 3191 3192 3193 3195 3195 3195 3194 3194 3194 3194 3194 3193 3192 3191 3191 3190 3190 3190 3189 3188 3188 3187 3186 3186 3185 3184 3183 3182 3181 3180 3179 3178 3176
3184 3184 3185 3185 3185 3185 3185 3186 3187 3188 3190 3191 3192 3192 3193 3195 3194 3194 3194 3194 3194 3194 3194 3194 3193 3191 3191 3191 3191 3190 3189 3188 3188 3187 3185 3184 3183 3183 3183 3181 3180 3178 3177 3176 3175
3183 3183 3183 3184 3184 3184 3184 3185 3186 3187 3188 3189 3190 3191 3192 3194 3193 3194 3194 3194 3194 3194 3194 3193 3192 3192 3191 3191 3190 3189 3189 3188 3188 3186 3185 3183 3182 3181 3181 3180 3178 3176 3175 3174 3173
3181 3182 3182 3183 3184 3184 3184 3184 3185 3186 3187 3188 3190 3191 3191 3192 3193 3193 3193 3194 3194 3194 3194 3193 3192 3191 3191 3191 3190 3189 3189 3188 3187 3186 3184 3183 3181 3179 3178 3178 3176 3174 3173 3172 3172
3180 3181 3181 3182 3182 3183 3183 3184 3184 3185 3186 3187 3189 3190 3191 3191 3192 3193 3193 3193 3193 3193 3193 3193 3192 3191 3191 3191 3190 3189 3188 3186 3185 3184 3183 3182 3179 3177 3176 3175 3174 3172 3171 3170 3170
3178 3179 3180 3181 3182 3183 3183 3183 3184 3185 3186 3187 3188 3192 3191 3191 3191 3192 3193 3193 3193 3193 3193 3193 3192 3191 3191 3191 3190 3189 3187 3185 3183 3183 3180 3178 3177 3175 3174 3174 3172 3171 3169 3169 3169
3176 3178 3179 3180 3181 3182 3183 3184 3186 3187 3186 3186 3188 3189 3190 3191 3191 3192 3192 3193 3193 3194 3193 3192 3193 3192 3191 3190 3189 3188 3186 3184 3182 3181 3178 3175 3173 3172 3171 3171 3170 3169 3167 3167 3167
3175 3176 3177 3179 3181 3181 3182 3183 3184 3186 3186 3186 3186 3188 3188 3190 3191 3191 3192 3194 3193 3193 3192 3192 3190 3190 3189 3188 3187 3186 3185 3184 3182 3179 3177 3173 3170 3169 3168 3168 3167 3166 3165 3165 3165
3173 3174 3175 3177 3179 3181 3181 3182 3183 3184 3185 3185 3185 3186 3188 3189 3190 3190 3191 3192 3192 3192 3192 3191 3191 3190 3189 3188 3186 3185 3183 3182 3181 3178 3175 3171 3165 3165 3166 3165 3164 3163 3163 3162 3163
3171 3172 3174 3175 3179 3179 3180 3181 3182 3183 3184 3186 3185 3185 3186 3186 3187 3188 3188 3191 3190 3190 3189 3189 3188 3189 3189 3188 3187 3185 3183 3181 3179 3178 3175 3173 3168 3163 3163 3163 3162 3161 3160 3160 3160
3170 3170 3172 3174 3176 3177 3180 3180 3181 3182 3184 3186 3184 3184 3184 3186 3186 3186 3187 3187 3187 3187 3189 3188 3187 3186 3186 3186 3184 3184 3182 3180 3177 3176 3174 3170 3170 3160 3160 3161 3161 3160 3159 3158 3158
3168 3170 3170 3172 3174 3176 3178 3179 3180 3183 3181 3182 3183 3183 3184 3184 3185 3185 3186 3186 3186 3185 3185 3185 3185 3185 3184 3184 3183 3181 3180 3178 3177 3175 3173 3171 3171 3160 3159 3159 3159 3159 3158 3157 3156
3165 3167 3169 3170 3172 3174 3176 3179 3181 3179 3182 3181 3181 3182 3182 3183 3184 3184 3184 3185 3185 3185 3183 3183 3182 3182 3181 3181 3180 3180 3180 3177 3176 3176 3173 3169 3169 3159 3158 3158 3158 3157 3156 3156 3155
3163 3164 3166 3168 3169 3172 3175 3178 3178 3176 3176 3178 3178 3179 3181 3182 3183 3183 3183 3183 3183 3183 3183 3183 3182 3181 3180 3180 3180 3179 3179 3179 3177 3177 3171 3169 3162 3157 3157 3156 3156 3156 3155 3154 3154
3161 3162 3163 3165 3167 3169 3173 3173 3172 3173 3175 3176 3177 3178 3179 3180 3182 3181 3181 3181 3182 3182 3185 3183 3181 3180 3179 3179 3180 3178 3178 3179 3178 3175 3173 3163 3158 3156 3154 3154 3154 3154 3153 3153 3151
3158 3159 3161 3162 3163 3166 3168 3169 3169 3170 3172 3174 3175 3175 3175 3178 3179 3180 3179 3179 3179 3180 3181 3181 3180 3178 3177 3177 3177 3177 3177 3176 3177 3176 3173 3159 3155 3152 3154 3153 3152 3152 3151 3150 3148
3155 3157 3157 3159 3161 3162 3162 3165 3166 3167 3169 3172 3172 3174 3175 3175 3176 3176 3176 3177 3176 3177 3178 3178 3179 3177 3175 3174 3173 3174 3173 3174 3174 3173 3171 3168 3152 3151 3151 3151 3151 3151 3149 3147 3145
3152 3153 3153 3155 3158 3156 3156 3160 3163 3163 3166 3167 3170 3171 3172 3173 3174 3175 3174 3176 3176 3176 3175 3176 3175 3173 3173 3172 3170 3170 3169 3170 3171 3169 3166 3164 3149 3151 3149 3149 3148 3146 3144 3141 3139
3147 3148 3149 3151 3151 3151 3153 3155 3156 3159 3161 3163 3165 3166 3168 3170 3172 3171 3171 3172 3172 3173 3173 3172 3170 3171 3170 3170 3167 3166 3166 3165 3164 3164 3160 3162 3147 3148 3148 3146 3143 3141 3137 3135 3132
3143 3144 3144 3145 3146 3148 3149 3150 3152 3152 3154 3157 3159 3161 3162 3163 3164 3165 3165 3167 3168 3169 3169 3169 3167 3166 3165 3164 3163 3162 3161 3162 3161 3157 3152 3144 3140 3143 3142 3141 3138 3133 3130 3128 3126
3135 3136 3138 3138 3141 3143 3145 3145 3146 3148 3150 3151 3152 3154 3156 3157 3159 3159 3160 3161 3163 3163 3164 3164 3160 3161 3160 3160 3159 3156 3154 3154 3151 3149 3145 3136 3134 3134 3134 3132 3128 3125 3123 3122 3120
3129 3130 3132 3133 3136 3138 3138 3139 3141 3143 3145 3146 3147 3150 3149 3149 3151 3153 3155 3156 3157 3157 3157 3157 3154 3154 3153 3154 3153 3149 3145 3144 3141 3138 3133 3130 3123 3128 3128 3125 3122 3120 3117 3116 3115
3121 3123 3125 3126 3128 3130 3131 3134 3137 3137 3138 3140 3143 3144 3144 3145 3146 3147 3148 3149 3149 3150 3152 3153 3151 3151 3145 3148 3146 3139 3131 3132 3131 3128 3125 3120 3118 3120 3119 3118 3117 3115 3114 3111 3109
Wind_Speed
6 5 4 4 4 5 4 5 8 8 6 5 5 5 4 4 5 5 5 5 6 6 5 4 4 3 4 4 3 2 4 1 3 5 8 11 12 14 12 11 10 9 9 8 8
6 5 5 4 3 3 4 5 6 7 6 5 6 5 3 5 4 5 4 6 7 5 5 5 2 2 4 5 3 1 3 1 4 7 11 10 10 10 9 8 7 8 8 8 7
5 5 5 4 4 4 4 4 5 5 4 5 5 4 3 4 6 3 3 6 6 5 5 4 2 4 5 5 6 4 1 3 4 5 7 7 8 8 7 5 6 8 8 7 8
1 3 4 4 3 3 4 4 5 5 6 6 5 3 2 2 3 3 3 4 4 4 3 3 4 1 6 6 7 6 4 2 4 6 6 7 10 10 8 6 6 7 7 7 8
1 1 1 2 2 2 3 4 5 5 6 6 6 5 3 2 1 2 1 2 3 3 3 3 4 5 5 6 7 5 5 4 3 6 7 8 9 9 8 7 7 8 8 6 7
1 1 1 1 1 1 1 3 5 5 5 5 5 4 3 2 2 1 1 1 2 2 2 3 5 4 4 5 4 5 5 4 3 7 9 9 10 7 7 7 7 8 8 6 5
3 2 2 2 1 1 1 2 4 5 6 6 6 5 4 3 2 1 2 1 1 0 0 1 2 2 2 2 3 4 5 4 6 7 10 12 6 7 7 6 6 8 8 6 4
5 4 3 2 2 1 1 2 3 4 5 6 6 6 5 4 3 3 2 1 1 0 0 1 1 1 1 1 2 4 3 5 9 10 8 11 8 12 10 8 7 7 7 6 4
7 6 5 4 3 2 2 3 3 4 4 4 4 4 3 4 4 4 3 2 1 1 1 0 2 2 2 4 1 2 6 8 10 13 13 12 11 12 11 9 9 7 6 6 5
8 8 6 5 4 2 2 3 3 3 4 3 3 3 3 3 4 4 4 2 1 2 3 1 2 2 2 1 3 8 9 11 11 12 15 16 12 12 8 8 9 7 5 5 5
7 9 8 7 5 3 2 2 3 3 4 4 4 3 4 2 4 4 4 3 1 2 4 3 2 1 1 5 10 12 10 12 12 12 15 16 12 10 8 6 7 6 3 4 5
6 8 9 7 6 5 4 4 2 3 3 3 4 5 4 5 3 4 4 3 2 3 4 4 2 3 5 8 13 11 12 12 13 12 17 16 12 12 9 4 6 6 3 4 6
5 8 9 9 8 6 5 3 3 3 2 3 5 4 6 6 5 5 5 5 5 5 7 7 6 6 8 8 9 10 11 10 13 16 19 16 10 6 6 5 5 5 4 3 4
6 7 9 10 8 8 6 4 2 0 1 1 2 3 7 7 7 9 10 8 7 5 6 6 7 7 6 9 11 11 8 10 12 14 7 9 7 9 9 7 4 5 5 5 4
6 7 8 9 8 9 7 5 4 1 2 2 3 2 3 7 3 3 6 9 10 8 7 6 7 8 11 10 9 9 11 12 14 13 13 8 6 4 7 7 4 4 6 7 7
6 6 7 9 11 9 8 8 5 3 2 4 2 2 3 4 6 6 5 6 6 7 9 10 11 11 10 10 11 11 12 12 13 8 4 3 6 6 4 4 5 5 7 8 9
6 7 7 9 13 12 10 9 5 4 5 4 3 4 4 3 2 5 6 7 7 5 6 6 8 9 9 10 9 7 7 4 2 2 5 3 7 12 9 8 8 7 7 10 10
7 8 9 10 11 13 12 12 5 7 9 7 3 4 4 3 2 4 4 6 8 10 6 4 3 3 3 4 5 5 6 3 4 1 5 7 9 3 4 6 5 5 8 9 11
8 8 10 11 11 13 15 15 6 10 10 8 6 8 7 5 5 4 6 8 7 6 4 3 4 5 5 4 4 4 5 5 5 5 4 6 9 13 6 3 4 4 1 6 12
10 9 11 13 15 16 18 17 12 12 9 10 9 7 7 6 6 5 5 4 5 7 8 7 8 10 11 11 11 12 8 5 4 2 4 7 9 10 5 8 5 5 8 17 21
11 11 13 15 15 18 22 17 18 17 15 12 12 9 9 6 11 9 6 6 7 7 8 11 11 10 10 7 7 9 12 9 7 6 4 3 6 5 7 6 2 9 17 24 24
13 15 15 17 20 21 22 19 18 22 21 16 13 12 15 14 12 12 13 10 5 4 7 9 8 12 13 14 13 13 12 12 7 5 8 5 19 22 14 8 23 25 27 27 28
17 18 16 19 22 22 18 18 22 23 22 20 17 14 18 17 12 15 19 18 17 15 9 10 9 5 5 10 15 16 14 15 17 18 19 7 14 9 21 29 31 34 34 32 33
19 17 21 22 23 20 18 21 22 23 24 23 22 19 18 22 25 14 16 15 17 18 19 18 22 18 17 12 9 10 12 14 18 16 26 34 41 36 34 37 35 35 34 31 27
21 22 23 15 22 24 21 18 21 25 22 20 21 22 23 21 24 28 26 22 19 17 17 20 26 24 24 24 24 27 24 23 29 32 36 45 45 40 35 31 30 29 25 23 22
24 25 24 23 22 21 21 22 22 19 22 23 22 16 17 25 27 18 21 27 27 20 20 23 29 27 29 27 27 31 35 35 37 41 46 48 50 31 25 25 26 25 22 23 24
28 27 26 25 25 26 26 20 18 21 24 24 22 21 24 20 20 26 29 26 24 22 22 25 27 27 33 30 30 33 43 41 37 36 36 42 32 20 19 22 25 24 23 24 23
Wind_Direction
62 76 100 113 110 109 112 136 146 147 142 134 132 126 121 93 87 96 92 82 69 69 72 63 77 108 96 72 64 104 144 173 237 248 291 304 301 304 310 311 313 319 316 336 350
77 84 100 116 116 103 105 122 143 154 152 144 141 136 124 92 85 113 92 73 56 50 44 34 350 93 68 60 65 60 218 291 262 267 288 302 296 287 297 313 319 313 325 344 339
73 75 82 103 131 139 130 122 135 150 158 149 146 144 127 106 111 114 93 66 62 45 28 24 337 78 63 47 25 17 11 280 299 309 314 313 300 299 313 332 308 309 331 339 339
112 79 77 80 110 154 166 160 154 151 153 158 160 161 148 117 115 69 84 59 48 43 43 1 350 44 59 14 21 8 9 358 338 334 328 332 324 325 330 337 324 316 337 336 337
202 204 114 79 78 113 174 185 184 174 169 173 175 184 172 157 153 5 80 56 49 39 28 347 15 29 29 354 7 18 4 1 356 339 331 330 323 322 329 336 330 322 331 336 334
181 178 177 174 112 109 172 194 195 194 191 190 198 209 205 191 212 179 119 71 50 32 37 0 19 11 13 357 358 354 16 19 19 351 340 331 323 322 319 325 324 324 328 326 324
200 194 184 172 163 140 154 183 193 202 200 199 203 217 230 224 201 164 123 87 74 196 137 49 18 19 1 6 27 26 40 38 6 357 349 341 336 339 327 322 323 326 326 318 323
201 196 198 187 179 154 139 164 178 193 199 205 210 216 223 235 210 177 144 61 82 259 262 68 82 107 173 131 79 51 24 6 345 342 342 339 335 328 323 318 325 329 328 317 314
197 198 199 198 192 160 151 156 170 175 183 200 203 212 222 223 209 174 172 156 156 165 194 182 179 158 164 120 11 341 346 336 336 332 325 326 332 319 313 308 316 327 326 314 303
203 199 198 199 203 176 158 155 162 167 171 179 196 191 198 184 193 178 177 177 227 198 176 117 133 207 129 349 326 320 311 306 305 317 316 314 321 309 305 301 307 322 320 293 287
212 200 198 194 204 191 159 156 152 173 179 177 157 173 134 173 193 195 203 204 240 225 200 203 173 269 299 322 322 315 302 294 301 309 312 317 315 297 283 284 308 324 311 256 260
208 207 201 197 195 197 184 170 183 158 183 216 212 191 204 210 207 205 216 223 240 264 251 268 254 255 289 299 307 299 294 294 297 306 310 308 298 275 259 263 301 319 319 260 254
190 204 207 201 195 205 203 187 169 197 201 231 242 220 224 232 221 232 236 237 248 261 275 281 282 290 292 298 301 295 294 294 291 305 306 308 307 233 236 249 297 326 331 280 255
174 193 208 205 196 199 202 192 192 336 8 210 193 225 231 229 245 225 236 247 257 257 263 276 275 267 286 305 302 300 298 296 293 305 298 300 292 259 233 232 276 315 333 325 283
185 182 199 203 194 194 195 192 175 151 57 166 210 218 205 200 199 204 228 240 247 256 252 259 267 267 283 290 289 284 293 295 293 296 297 272 248 249 245 245 268 305 325 335 324
195 188 191 194 201 196 189 182 174 156 209 179 205 200 209 208 224 242 239 237 247 248 259 266 270 274 277 278 282 282 290 295 291 293 282 275 246 277 262 250 259 293 313 322 331
200 188 187 192 203 200 192 192 172 198 170 189 200 221 204 189 210 247 247 247 245 252 252 267 268 271 273 278 278 279 296 301 323 332 236 296 251 259 275 271 268 287 314 321 321
212 198 189 197 205 204 197 189 206 186 183 173 146 181 198 203 223 234 256 255 249 243 263 282 296 265 273 278 271 263 277 262 268 258 292 279 247 285 302 278 264 287 318 328 330
218 206 197 199 204 209 202 201 202 181 198 209 209 214 227 244 238 247 257 257 251 240 245 266 271 278 280 274 269 271 263 268 284 275 280 250 276 287 283 297 261 292 360 357 346
225 211 211 205 201 206 210 212 209 195 190 200 219 201 185 212 218 216 241 252 247 248 250 266 280 276 270 273 266 250 258 247 244 246 269 278 274 260 297 326 285 225 300 322 324
226 222 223 215 211 211 217 217 215 212 211 214 218 223 234 212 216 220 226 232 244 260 261 262 256 274 272 269 264 255 244 239 246 244 198 284 271 273 299 335 332 289 306 312 310
231 225 225 221 215 223 227 225 228 225 228 229 235 238 236 237 226 231 243 241 239 239 256 253 252 259 272 273 264 256 248 237 230 227 228 254 274 284 276 281 314 311 310 307 306
232 235 232 229 223 230 232 227 227 234 232 239 240 240 234 231 233 235 246 251 249 256 259 252 237 254 282 266 261 253 255 248 247 255 256 220 260 275 296 296 302 304 303 302 301
233 233 234 235 236 234 230 235 228 233 240 243 248 244 242 236 231 243 241 243 247 253 261 261 252 244 245 270 256 241 257 266 257 247 263 260 282 291 291 293 299 292 289 293 296
228 234 238 239 243 241 235 237 235 236 236 239 247 248 248 245 239 238 240 244 245 243 252 259 259 259 262 260 261 269 269 268 266 272 267 282 283 290 299 307 298 295 292 293 299
234 233 239 244 245 241 235 238 243 240 241 249 246 252 249 247 248 253 243 244 251 254 253 259 261 265 266 263 262 266 269 270 269 271 273 278 281 294 300 293 294 292 292 300 308
237 239 240 241 240 241 244 253 255 249 252 256 257 250 252 259 254 249 247 243 241 247 250 261 264 266 267 272 272 272 266 268 271 272 272 271 287 287 287 293 291 294 295 300 307